TimeICT,TemperatureF,Dew PointF,Humidity,Sea Level PressureIn,VisibilityMPH,Wind Direction,Wind SpeedMPH,Gust SpeedMPH,PrecipitationIn,Events,Conditions,WindDirDegrees,DateUTC
12:00 AM,86.0,66.2,51,29.83,5.6,South,2.3,-,N/A,,Partly Cloudy,180,2013-02-13 17:00:00
12:30 AM,86.0,66.2,51,29.83,5.6,Variable,5.8,-,N/A,,Partly Cloudy,0,2013-02-13 17:30:00
1:00 AM,86.0,66.2,51,29.83,5.6,ENE,4.6,-,N/A,,Partly Cloudy,60,2013-02-13 18:00:00
6:30 AM,78.8,66.2,65,29.83,5.6,NE,6.9,-,N/A,,Unknown,40,2013-02-13 23:30:00
7:00 AM,77,68,67,29.88,6,East,2.2,,,,Partly Cloudy,90,2013-02-14 00:00:00
7:00 AM,78.8,66.2,65,29.83,5.6,ENE,9.2,-,N/A,,Unknown,60,2013-02-14 00:00:00
7:30 AM,80.6,66.2,61,29.83,5.6,ENE,9.2,-,N/A,,Unknown,60,2013-02-14 00:30:00
8:00 AM,80.6,64.4,58,29.86,5.6,ENE,8.1,-,N/A,,Unknown,60,2013-02-14 01:00:00
8:30 AM,82.4,64.4,54,29.86,-9999.0,ENE,9.2,-,N/A,,Clear,60,2013-02-14 01:30:00
9:00 AM,84.2,66.2,55,29.86,-9999.0,NNE,10.4,-,N/A,,Clear,30,2013-02-14 02:00:00
9:30 AM,84.2,66.2,55,29.86,-9999.0,NNE,3.5,-,N/A,,Clear,30,2013-02-14 02:30:00
10:00 AM,86.0,66.2,51,29.86,-9999.0,NNE,4.6,-,N/A,,Clear,20,2013-02-14 03:00:00
10:30 AM,87.8,66.2,49,29.86,-9999.0,ESE,4.6,-,N/A,,Clear,120,2013-02-14 03:30:00
11:00 AM,89.6,66.2,46,29.86,-9999.0,NNW,5.8,-,N/A,,Clear,330,2013-02-14 04:00:00
11:30 AM,89.6,66.2,46,29.83,-9999.0,NW,5.8,-,N/A,,Clear,320,2013-02-14 04:30:00
12:00 PM,89.6,66.2,46,29.83,-9999.0,WNW,6.9,-,N/A,,Clear,300,2013-02-14 05:00:00
12:30 PM,91.4,66.2,43,29.80,-9999.0,NW,9.2,-,N/A,,Clear,320,2013-02-14 05:30:00
1:00 PM,91.4,66.2,43,29.80,-9999.0,NW,4.6,-,N/A,,Clear,320,2013-02-14 06:00:00
1:30 PM,91.4,66.2,43,29.77,-9999.0,NNW,6.9,-,N/A,,Clear,330,2013-02-14 06:30:00
2:00 PM,95.0,66.2,39,29.77,-9999.0,SW,6.9,-,N/A,,Clear,220,2013-02-14 07:00:00
2:30 PM,93.2,66.2,41,29.74,-9999.0,NW,5.8,-,N/A,,Clear,320,2013-02-14 07:30:00
3:00 PM,95.0,64.4,36,29.74,-9999.0,NNE,6.9,-,N/A,,Clear,30,2013-02-14 08:00:00
3:30 PM,95.0,62.6,34,29.74,6.2,ESE,5.8,-,N/A,,Partly Cloudy,110,2013-02-14 08:30:00
4:00 PM,95.0,62.6,34,29.71,6.2,ESE,2.3,-,N/A,,Partly Cloudy,110,2013-02-14 09:00:00
4:30 PM,95.0,64.4,36,29.71,6.2,NNE,5.8,-,N/A,,Partly Cloudy,20,2013-02-14 09:30:00
5:00 PM,93.2,64.4,38,29.71,6.2,ENE,5.8,-,N/A,,Scattered Clouds,70,2013-02-14 10:00:00
5:30 PM,93.2,64.4,38,29.74,6.2,SE,3.5,-,N/A,,Scattered Clouds,140,2013-02-14 10:30:00
6:00 PM,91.4,64.4,41,29.74,5.6,ESE,3.5,-,N/A,,Scattered Clouds,120,2013-02-14 11:00:00
6:30 PM,91.4,66.2,43,29.74,5.6,SE,3.5,-,N/A,,Partly Cloudy,130,2013-02-14 11:30:00
7:00 PM,91.4,64.4,41,29.74,5.6,SSE,2.3,-,N/A,,Partly Cloudy,150,2013-02-14 12:00:00
7:30 PM,91.4,66.2,43,29.74,5.6,South,3.5,-,N/A,,Partly Cloudy,170,2013-02-14 12:30:00
8:00 PM,89.6,69.8,52,29.77,5.6,SSE,6.9,-,N/A,,Partly Cloudy,160,2013-02-14 13:00:00
8:30 PM,87.8,69.8,55,29.77,5.6,South,6.9,-,N/A,,Partly Cloudy,170,2013-02-14 13:30:00
9:00 PM,87.8,69.8,55,29.80,5.6,South,6.9,-,N/A,,Partly Cloudy,190,2013-02-14 14:00:00
9:30 PM,87.8,69.8,55,29.80,5.6,South,5.8,-,N/A,,Partly Cloudy,170,2013-02-14 14:30:00
10:00 PM,84.2,69.8,62,29.80,5.6,SSW,8.1,-,N/A,,Partly Cloudy,200,2013-02-14 15:00:00
10:30 PM,84.2,71.6,66,29.80,5.6,SSW,11.5,-,N/A,,Partly Cloudy,200,2013-02-14 15:30:00
11:30 PM,84.2,71.6,66,29.80,5.6,SSW,11.5,-,N/A,,Partly Cloudy,200,2013-02-14 16:30:00